Regional Weather Roundup
Issued by NWS

Home | Current Version | Previous Version | Text Only | Print | Product List | Glossary On
Versions: 1 2 3 4 5 6 7 8 9 10 11 12 13 14 15 16 17 18 19 20 21 22 23 24 25 26 27 28 29 30 31 32 33 34 35 36 37 38 39 40 41 42 43 44 45 46 47 48 49 50
000
ASUS43 KIND 220909
RWRIN

WEATHER ROUNDUP FOR INDIANA
NATIONAL WEATHER SERVICE INDIANAPOLIS IN
500 AM EDT TUE AUG 22 2017

NOTE: "FAIR" INDICATES FEW OR NO CLOUDS BELOW 12,000 FEET WITH NO
SIGNIFICANT WEATHER AND/OR OBSTRUCTIONS TO VISIBILITY.

* - STATION DOES NOT REPORT WEATHER SUCH AS PRECIPITATION OR FOG.

+ - STATION NOT QUALITY CONTROLLED BY THE NATIONAL WEATHER SERVICE.
    USE DATA WITH CAUTION...ESPECIALLY DEWPOINT AND RELATIVE
    HUMIDITY OBSERVATIONS.

INZ001>003-010>013-019-020-221000-
NORTHWEST INDIANA

CITY           SKY/WX    TMP DP  RH WIND       PRES   REMARKS
GARY /AIRPORT/ LGT RAIN  73  69  88 S8        29.90R
KNOX *+        CLOUDY    70  68  94 SW9G17    29.91R
LA PORTE +     RAIN      70  68  93 SW10      29.91R
MICHIGAN CITY+ LGT RAIN  70  70 100 SW12      29.90R
MONTICELLO +   RAIN      69  68  96 SW9       29.94S
RENSSELAER +   RAIN      70  64  83 SW15G21   29.94R
VALPARAISO     RAIN      72  70  93 SW13      29.92R FOG

$$

LMZ046-743>745-221000-
SOUTHERN LAKE MICHIGAN

STATION/POSITION TIME  TEMP    WIND        PRES    WAVE
                       AIR SEA DIR/SP/G            HT
                 (UTC) (F)     (DEG/KT/KT) (MB)    (FT)
BURNS HARBOR     0840   72     200/ 16/ 21 1012.2R
MICHIGAN CITY    0840   71     180/ 14/ 15   N/A
5NW MICH CITY    0900   73 74  210/ 17/ 23   N/A     3

$$

INZ004-005-014>016-021>024-221000-
NORTH CENTRAL INDIANA

CITY           SKY/WX    TMP DP  RH WIND       PRES   REMARKS
GOSHEN         LGT RAIN  71  66  84 SW13      29.91F
LOGANSPORT +   HVY RAIN  68  68 100 W9        29.95S
PERU/GRISSOM   TSTM      70  70 100 W7        29.94F
ROCHESTER +    CLOUDY   N/A N/A N/A W6        29.93F
SOUTH BEND     CLOUDY    70  70 100 S10       29.88F
WARSAW +       LGT RAIN  70  68  94 W8        29.93F

$$

INZ006>009-017-018-025>027-221000-
NORTHEAST INDIANA

CITY           SKY/WX    TMP DP  RH WIND       PRES   REMARKS
AUBURN +       RAIN      72  68  88 W3        29.94F
FORT WAYNE     LGT RAIN  72  69  90 W10       29.94R
HUNTINGTON +   RAIN      71  69  96 W3        29.94F

$$

INZ028-029-035-036-043>045-051>053-221000-
WEST CENTRAL INDIANA

CITY           SKY/WX    TMP DP  RH WIND       PRES   REMARKS
GREENCASTLE +  CLEAR     73  70  88 S3        29.95F
LAFAYETTE      HVY RAIN  68  68 100 W9G23     29.94R FOG
TERRE HAUTE    PTCLDY    74  70  87 S7        29.94F

$$

INZ030>032-037>040-046>048-054>057-064-065-221000-
CENTRAL INDIANA

CITY           SKY/WX    TMP DP  RH WIND       PRES   REMARKS
CP ATTERBURY + CLOUDY    73  68  83 SW8       29.96F
FRANKFORT +    CLOUDY    74  71  88 CALM      29.96F
GREENWOOD *+   PTCLDY   N/A N/A N/A S6        29.97F
INDIANAPOLIS   PTCLDY    74  69  85 SW12      29.94F
-EAGLE CREEK   PTCLDY    75  69  81 S6        29.94F
KOKOMO +       CLOUDY    71  69  93 CALM      29.95F
MARION +       CLOUDY    72  70  94 NW5       29.96R
MT COMFORT *+  CLOUDY    72  68  88 S6        29.97F
SHELBYVILLE    CLOUDY    73  67  81 S7        29.96F
ZIONSVILLE +   CLOUDY    72  69  91 S9        29.95F

$$

INZ033-034-041-042-049-050-058-059-221000-
EAST CENTRAL INDIANA

CITY           SKY/WX    TMP DP  RH WIND       PRES   REMARKS
MUNCIE         CLOUDY    77  68  73 SW10      29.94F
RICHMOND +     MOCLDY    68  66  94 S7        29.99F

$$

INZ060-061-067>069-081>083-085>088-221000-
SOUTHWEST INDIANA

CITY           SKY/WX    TMP DP  RH WIND       PRES   REMARKS
EVANSVILLE     CLEAR     75  72  90 SW8       29.98S
HUNTINGBURG +  CLEAR     73  71  93 S7        29.98F
WASHINGTON +   PTCLDY    74  72  93 MISG      29.96F

$$

INZ062-063-066-070>080-084-089>092-221000-
SOUTH CENTRAL AND SOUTHEAST INDIANA

CITY           SKY/WX    TMP DP  RH WIND       PRES   REMARKS
BEDFORD +      CLOUDY    72  66  83 S3        29.97S
BLOOMINGTON    CLOUDY    73  69  87 S5        29.97F
MADISON *+     PTCLDY    72  68  88 CALM      30.02S
NORTH VERNON + PTCLDY    72  68  88 S7        29.99F
SEYMOUR +      CLEAR     73  68  83 S3        29.98F

$$





USA.gov is the U.S. government's official web portal to all federal, state and local government web resources and services.